Date String (YYYY-MM-DD hh:mm:ss) UTC,Instrument flags,Ambient pressure (hPa),Sample flow (lpm),Bypass flow (lpm),Sample temperature (°C),Ambient temperature (°C),ASC tube jacket temperature (°C),LED temperature (°C),Box temperature (°C),Sample RH (%),Span deviation,Mass concentration (μg/m³),Mass concentration (μg/m³),Mass concentration (μg/m³)
DateTimeUTC,F1_M11,P_M11,Q1_M11,Q2_M11,T1_M11,T2_M11,T3_M11,T4_M11,T5_M11,U1_M11,ZSPAN_M11,X0_M11,X2_M11,X1_M11
2022-11-02 02:00:00,,0820.0,5.00,0.00,29.9,28.5,00.0,38.7,31.7,08.2,0000.0,0004.99,0002.38,0001.89
2022-11-02 02:01:00,,0820.0,5.02,0.00,29.9,28.5,00.0,38.7,31.7,08.2,0000.0,0004.45,0002.34,0001.88
2022-11-02 02:02:00,,0820.0,4.99,0.00,29.9,28.5,00.0,38.7,31.7,08.2,0000.0,0003.77,0002.29,0001.87
2022-11-02 02:03:00,,0820.1,4.99,0.00,29.9,28.5,00.0,38.7,31.7,08.2,0000.0,0003.63,0002.22,0001.86
2022-11-02 02:04:00,,0820.1,5.01,0.00,29.9,28.5,00.0,38.7,31.7,08.1,0000.0,0003.52,0002.18,0001.85
2022-11-02 02:05:00,,0820.1,4.99,0.00,29.9,28.5,00.0,38.7,31.7,08.1,0000.0,0003.41,0002.18,0001.85
2022-11-02 02:06:00,,0820.1,5.01,0.00,29.9,28.5,00.0,38.7,31.7,08.1,0000.0,0003.41,0002.17,0001.86
2022-11-02 02:07:00,,0820.1,5.00,0.00,29.9,28.5,00.0,38.8,31.7,08.1,0000.0,0003.25,0002.13,0001.87
2022-11-02 02:08:00,,0820.1,5.00,0.00,29.9,28.5,00.0,38.8,31.7,08.2,0000.0,0003.27,0002.14,0001.89
2022-11-02 02:09:00,,0820.0,5.00,0.00,29.9,28.5,00.0,38.8,31.7,08.2,0000.0,0003.01,0002.14,0001.89
2022-11-02 02:10:00,,0820.1,5.00,0.00,29.9,28.5,00.0,38.8,31.7,08.2,0000.0,0002.83,0002.17,0001.91
2022-11-02 02:11:00,,0820.1,4.99,0.00,29.9,28.5,00.0,38.8,31.7,08.2,0000.0,0003.08,0002.26,0001.91
2022-11-02 02:12:00,,0820.1,5.00,0.00,29.9,28.5,00.0,38.8,31.7,08.2,0000.0,0003.10,0002.25,0001.91
2022-11-02 02:13:00,,0820.1,5.02,0.00,29.9,28.5,00.0,38.8,31.7,08.2,0000.0,0003.72,0002.28,0001.90
2022-11-02 02:14:00,,0820.0,4.98,0.00,30.0,28.5,00.0,38.8,31.7,08.2,0000.0,0003.83,0002.30,0001.91
2022-11-02 02:15:00,,0820.0,5.01,0.00,29.9,28.5,00.0,38.8,31.7,08.2,0000.0,0004.27,0002.31,0001.91
2022-11-02 02:16:00,,0820.1,4.99,0.00,30.0,28.5,00.0,38.8,31.7,08.2,0000.0,0004.65,0002.34,0001.92
2022-11-02 02:17:00,,0820.1,5.00,0.00,30.0,28.6,00.0,38.8,31.7,08.2,0000.0,0004.74,0002.35,0001.93
2022-11-02 02:18:00,,0820.1,5.02,0.00,30.0,28.6,00.0,38.8,31.8,08.4,0000.0,0004.86,0002.39,0001.93
2022-11-02 02:19:00,,0820.1,4.98,0.00,30.0,28.6,00.0,38.8,31.7,08.4,0000.0,0004.96,0002.41,0001.92
2022-11-02 02:20:00,,0820.1,5.01,0.00,30.0,28.6,00.0,38.8,31.7,08.4,0000.0,0005.01,0002.42,0001.92
2022-11-02 02:21:00,,0820.1,4.99,0.00,30.0,28.6,00.0,38.8,31.7,08.4,0000.0,0005.36,0002.45,0001.92
2022-11-02 02:22:00,,0820.1,4.99,0.00,30.0,28.6,00.0,38.8,31.8,08.4,0000.0,0005.38,0002.43,0001.92
2022-11-02 02:23:00,,0820.2,5.01,0.00,30.0,28.6,00.0,38.8,31.7,08.4,0000.0,0005.62,0002.48,0001.93
2022-11-02 02:24:00,,0820.1,4.99,0.00,30.0,28.6,00.0,38.8,31.7,08.4,0000.0,0005.48,0002.52,0001.94
2022-11-02 02:25:00,,0820.2,5.00,0.00,30.0,28.6,00.0,38.8,31.8,08.4,0000.0,0005.33,0002.53,0001.94
2022-11-02 02:26:00,,0820.2,5.02,0.00,30.0,28.6,00.0,38.8,31.8,08.3,0000.0,0005.27,0002.57,0001.94
2022-11-02 02:27:00,,0820.2,4.99,0.00,30.0,28.6,00.0,38.8,31.7,08.2,0000.0,0004.82,0002.56,0001.94
2022-11-02 02:28:00,,0820.1,4.99,0.00,30.0,28.6,00.0,38.8,31.7,08.2,0000.0,0004.72,0002.55,0001.92
2022-11-02 02:29:00,,0820.2,5.00,0.00,30.0,28.6,00.0,38.8,31.7,08.3,0000.0,0004.67,0002.55,0001.92
2022-11-02 02:30:00,,0820.1,5.01,0.00,30.0,28.6,00.0,38.8,31.7,08.2,0000.0,0004.82,0002.56,0001.91
2022-11-02 02:31:00,,0820.1,5.01,0.00,30.0,28.5,00.0,38.8,31.7,08.2,0000.0,0004.79,0002.54,0001.90
2022-11-02 02:32:00,,0820.1,4.98,0.00,30.0,28.5,00.0,38.8,31.7,08.2,0000.0,0004.57,0002.53,0001.89
2022-11-02 02:33:00,,0820.1,5.01,0.00,30.0,28.5,00.0,38.8,31.7,08.2,0000.0,0004.25,0002.47,0001.88
2022-11-02 02:34:00,,0820.1,5.00,0.00,30.0,28.5,00.0,38.8,31.7,08.1,0000.0,0004.03,0002.43,0001.88
2022-11-02 02:35:00,,0820.1,5.00,0.00,30.0,28.5,00.0,38.8,31.7,08.2,0000.0,0004.00,0002.42,0001.87
2022-11-02 02:36:00,,0820.1,5.00,0.00,30.0,28.5,00.0,38.8,31.7,08.2,0000.0,0004.38,0002.40,0001.88
2022-11-02 02:37:00,,0820.2,5.00,0.00,30.0,28.5,00.0,38.8,31.8,08.3,0000.0,0005.27,0002.36,0001.88
2022-11-02 02:38:00,,0820.2,4.99,0.00,30.0,28.5,00.0,38.8,31.7,08.5,0000.0,0005.20,0002.33,0001.88
2022-11-02 02:39:00,,0820.2,5.01,0.00,30.0,28.6,00.0,38.8,31.8,08.5,0000.0,0005.13,0002.31,0001.87
2022-11-02 02:40:00,,0820.2,4.99,0.00,30.0,28.5,00.0,38.8,31.7,08.4,0000.0,0005.04,0002.28,0001.87
2022-11-02 02:41:00,,0820.1,5.01,0.00,30.0,28.5,00.0,38.8,31.7,08.3,0000.0,0004.71,0002.20,0001.86
2022-11-02 02:42:00,,0820.1,5.00,0.00,30.0,28.5,00.0,38.8,31.7,08.2,0000.0,0004.60,0002.18,0001.86
2022-11-02 02:43:00,,0820.1,4.99,0.00,30.0,28.5,00.0,38.8,31.7,08.2,0000.0,0004.65,0002.16,0001.86
2022-11-02 02:44:00,,0820.2,5.01,0.00,30.0,28.5,00.0,38.8,31.7,08.3,0000.0,0004.66,0002.15,0001.86
2022-11-02 02:45:00,,0820.1,5.00,0.00,30.0,28.5,00.0,38.8,31.7,08.3,0000.0,0004.80,0002.15,0001.85
2022-11-02 02:46:00,,0820.1,5.00,0.00,30.0,28.5,00.0,38.8,31.7,08.3,0000.0,0004.68,0002.10,0001.85
2022-11-02 02:47:00,,0820.0,4.99,0.00,30.0,28.5,00.0,38.8,31.7,08.3,0000.0,0004.25,0002.11,0001.85
2022-11-02 02:48:00,,0820.0,5.01,0.00,30.0,28.5,00.0,38.8,31.7,08.3,0000.0,0003.28,0002.14,0001.84
2022-11-02 02:49:00,,0820.0,4.99,0.00,30.0,28.5,00.0,38.8,31.7,08.3,0000.0,0003.08,0002.16,0001.84
2022-11-02 02:50:00,,0820.0,4.99,0.00,30.0,28.5,00.0,38.8,31.7,08.3,0000.0,0004.06,0002.18,0001.84
2022-11-02 02:51:00,,0820.0,5.01,0.00,30.0,28.5,00.0,38.8,31.7,08.3,0000.0,0004.45,0002.19,0001.82
2022-11-02 02:52:00,,0820.0,4.99,0.00,30.0,28.5,00.0,38.8,31.7,08.3,0000.0,0004.50,0002.20,0001.80
2022-11-02 02:53:00,,0820.0,5.01,0.00,30.0,28.5,00.0,38.8,31.7,08.3,0000.0,0004.81,0002.23,0001.79
2022-11-02 02:54:00,,0820.0,4.99,0.00,30.0,28.5,00.0,38.8,31.7,08.4,0000.0,0006.20,0002.23,0001.78
2022-11-02 02:55:00,,0820.0,4.99,0.00,30.0,28.5,00.0,38.8,31.7,08.4,0000.0,0006.16,0002.22,0001.78
2022-11-02 02:56:00,,0820.0,5.00,0.00,30.0,28.5,00.0,38.8,31.7,08.4,0000.0,0006.11,0002.22,0001.77
2022-11-02 02:57:00,,0820.0,5.01,0.00,30.0,28.5,00.0,38.8,31.7,08.4,0000.0,0006.07,0002.21,0001.76
2022-11-02 02:58:00,,0820.0,4.99,0.00,30.0,28.5,00.0,38.8,31.7,08.5,0000.0,0005.98,0002.16,0001.75
2022-11-02 02:59:00,,0820.1,5.00,0.00,29.9,28.5,00.0,38.8,31.7,08.5,0000.0,0006.39,0002.12,0001.75
